Regional Weather Roundup
Issued by NWS Sioux Falls, SD

Home | Current Version | Previous Version | Text Only | Print | Product List | Glossary On
Versions: 1 2 3 4 5 6 7 8 9 10 11 12 13 14 15 16 17 18 19 20 21 22 23 24 25 26 27 28 29 30 31 32 33 34 35 36 37 38 39 40 41 42 43 44 45 46 47 48 49 50
000
ASUS43 KFSD 190310
RWRFSD

WEATHER ROUNDUP FOR SE SOUTH DAKOTA/SW MINNESOTA/NW IOWA
NATIONAL WEATHER SERVICE SIOUX FALLS SD
900 PM CST SUN FEB 18 2018

NOTE: "FAIR" INDICATES FEW OR NO CLOUDS BELOW 12,000 FEET WITH NO
SIGNIFICANT WEATHER AND OR OBSTRUCTIONS TO VISIBILITY.


SDZ038>040-050-052>070-190400-
SOUTHEAST SOUTH DAKOTA

CITY           SKY/WX    TMP DP  RH WIND       PRES   REMARKS
BROOKINGS      CLOUDY    19  15  84 N21G26    29.77R WCI   3
CHAMBERLAIN    LGT SNOW  19  16  88 NW18G25   29.88R WCI   3
HURON          CLOUDY    16  10  77 N18       29.90R WCI   0
MADISON        CLOUDY    19  19 100 N20G29    29.75R WCI   4
MITCHELL       CLOUDY    21  16  81 N24G31    29.83R WCI   4
SIOUX FALLS    MOCLDY    27  21  78 N14       29.73R WCI  16
WINNER         CLOUDY    20  14  77 N25G31    29.86R WCI   2
YANKTON          N/A     26  22  84 NW23G30   29.72R WCI  11
$$

MNZ071-072-080-081-089-090-097-098-190400-
SOUTHWEST MINNESOTA

CITY           SKY/WX    TMP DP  RH WIND       PRES   REMARKS
FAIRMONT       PTCLDY    35  28  75 NW15      29.66R WCI  25
JACKSON        CLEAR     32  27  80 NW14G21   29.68R WCI  22
LUVERNE        PTCLDY    28  21  74 N17       29.72R WCI  16
MARSHALL       CLOUDY    22  16  78 N17       29.77R WCI   8
MONTEVIDEO     CLOUDY    21  16  79 N14       29.79R WCI   8
PIPESTONE      PTCLDY    23  18  80 NE14G25   29.72R WCI  11
REDWOOD FALLS  PTCLDY    26  19  74 N10       29.73R WCI  16
TRACY          PTCLDY    25  19  78 N15G23    29.74R WCI  12
WINDOM         CLEAR     28  14  54 NW22      29.69R WCI  15
WORTHINGTON    CLEAR     27  22  81 N21       29.70R WCI  13
$$

IAZ001>003-012>014-020>022-031-032-NEZ013-014-SDZ071-190400-
NORTHWEST IOWA

CITY           SKY/WX    TMP DP  RH WIND       PRES   REMARKS
CHEROKEE       PTCLDY    33  30  91 NE3       29.65R
DENISON        CLOUDY    41  32  70 S13       29.63S
ESTHERVILLE    CLOUDY    34  30  85 N17       29.66R WCI  23
LE MARS        PTCLDY    34  30  86 NW8       29.67R WCI  27
ORANGE CITY    CLEAR     34  32  93 NW8       29.66R WCI  27
SHELDON        MOCLDY    32  28  86 N17       29.66R WCI  21
SIOUX CITY     PTCLDY    32  28  85 NW20      29.66R WCI  20
SPENCER        MOCLDY    31  29  92 N3        29.65R
STORM LAKE     CLOUDY    37  32  81 W9        29.64R
$$

ABBREVIATIONS USED IN REMARKS
   TC - TEMPERATURE IN CELSIUS
  WCI - WIND CHILL INDEX
   HX - HEAT INDEX
  VSB - VISIBILITY





USA.gov is the U.S. government's official web portal to all federal, state and local government web resources and services.